Location: Skalnate Pleso
(49.1889°N, 20.2450°E)
Time: 17:41:17
(UTC+01:00)

SJ 16-02 - Pass Details

Date: 19 November 2019
Orbit: 606 x 616 km, 75.0° (Epoch: 10 December)

Event Time Altitude Azimuth Distance (km) Brightness Sun altitude
Exits shadow 03:32:59 23° 52° (NE) 1,303 3.5 -32.6°
Drops below altitude 10° 03:34:55 10° 36° (NE) 1,968 4.4 -32.3°
Sets 03:37:17 0° 28° (NNE) 2,876 5.2 -31.9°
